Solomon, AZ

6:50 PM MST on August 30, 2016 (GMT -0700)
Safford Regional

Weather History for KSAD - April, 2014

Change the Weather History Date:

Sunday, April 13, 2014

  Actual Average Record
Temperature  
Mean Temperature 70 °F -  
Max Temperature 84 °F 77 °F 91 °F (1992)
Min Temperature 57 °F 41 °F 27 °F (1953)
Cooling Degree Days 6    
Growing Degree Days 20 (Base 50)    
Moisture  
Dew Point 20 °F    
Average Humidity 16    
Maximum Humidity 23    
Minimum Humidity 9    
Precipitation  
Precipitation 0.00 in - - ()
Sea Level Pressure  
Sea Level Pressure 29.71 in    
Wind  
Wind Speed 13 mph (NW)    
Max Wind Speed 28 mph    
Max Gust Speed 40 mph    
Visibility 10 miles    
Events      
Averages and records for this station are not official NWS values.
T = Trace of Precipitation, MM = Missing Value Source: NWS Daily Summary

Daily Weather History Graph

Daily Weather History Graph

Search for Another Location

Airport or City:

Trip Planner

Search our weather history database for the weather conditions in past years. The results will help you decide how hot, cold, wet, or windy it might be!

Date:

Astronomy

Apr. 13, 2014 Rise Set
Actual Time 5:51 AM MST 6:47 PM MST
Civil Twilight 5:25 AM MST 7:12 PM MST
Nautical Twilight 4:56 AM MST 7:42 PM MST
Astronomical Twilight 4:25 AM MST 8:13 PM MST
Moon 5:32 PM MST (4/13) 4:46 AM MST (4/13)
Length of Visible Light 13h 46m
Length of Day
12h 56m
Waxing Gibbous, 97% of the Moon is Illuminated
Apr 13
Waxing Gibbous
Apr 15
Full
Apr 22
Last Quarter
Apr 28
New
May 6
First Quarter

Hourly Weather History & Observations

Time (MST) Temp. Dew Point Humidity Pressure Visibility Wind Dir Wind Speed Gust Speed Precip Events Conditions
12:51 AM 63.0 °F 12.9 °F 14% 29.69 in 10.0 mi NNW 11.5 mph - N/A   Clear
1:51 AM 61.0 °F 15.1 °F 17% 29.69 in 10.0 mi NNW 15.0 mph - N/A   Clear
2:51 AM 60.1 °F 16.0 °F 18% 29.69 in 10.0 mi NNW 9.2 mph - N/A   Clear
3:51 AM 57.9 °F 17.1 °F 20% 29.70 in 10.0 mi NW 11.5 mph - N/A   Clear
4:51 AM 57.0 °F 17.1 °F 21% 29.71 in 10.0 mi NNW 11.5 mph - N/A   Clear
5:51 AM 57.0 °F 19.0 °F 23% 29.73 in 10.0 mi NNW 10.4 mph - N/A   Clear
6:51 AM 61.0 °F 21.0 °F 21% 29.76 in 10.0 mi NW 8.1 mph - N/A   Clear
7:51 AM 66.0 °F 21.9 °F 19% 29.78 in 10.0 mi NW 9.2 mph - N/A   Clear
8:51 AM 69.1 °F 19.9 °F 15% 29.78 in 10.0 mi NW 10.4 mph - N/A   Clear
9:51 AM 72.0 °F 19.9 °F 14% 29.78 in 10.0 mi NW 15.0 mph - N/A   Clear
10:51 AM 73.9 °F 19.0 °F 13% 29.77 in 10.0 mi WNW 9.2 mph - N/A   Clear
11:51 AM 77.0 °F 19.0 °F 11% 29.74 in 10.0 mi West 8.1 mph - N/A   Clear
12:51 PM 80.1 °F 18.0 °F 10% 29.70 in 10.0 mi North - - N/A   Clear
2:51 PM 84.0 °F 18.0 °F 9% 29.64 in 10.0 mi West 23.0 mph 32.2 mph N/A   Clear
3:51 PM 84.0 °F 18.0 °F 9% 29.62 in 10.0 mi West 25.3 mph 34.5 mph N/A   Clear
4:51 PM 81.0 °F 19.0 °F 10% 29.62 in 10.0 mi WNW 24.2 mph 40.3 mph N/A   Clear
5:51 PM 79.0 °F 19.0 °F 11% 29.64 in 10.0 mi WNW 27.6 mph 36.8 mph N/A   Clear
6:51 PM 75.9 °F 19.9 °F 12% 29.65 in 10.0 mi WNW 25.3 mph 31.1 mph N/A   Clear
7:51 PM 72.0 °F 21.9 °F 15% 29.68 in 10.0 mi WNW 13.8 mph - N/A   Clear
8:51 PM 70.0 °F 25.0 °F 18% 29.70 in 10.0 mi NW 12.7 mph - N/A   Clear
9:51 PM 66.9 °F 25.0 °F 21% 29.73 in 10.0 mi WNW 8.1 mph - N/A   Clear
11:51 PM 68.0 °F 28.9 °F 23% 29.73 in 10.0 mi NW 17.3 mph - N/A   Clear